Log in Register

Login to your account

Username *
Password *
Remember Me

Create an account

Fields marked with an asterisk (*) are required.
Name *
Username *
Password *
Verify password *
Email *
Verify email *
Captcha *

Please enter the email address for your account. A verification code will be sent to you. Once you have received the verification code, you will be able to choose a new password for your account.

Nous contacter

 Téléphone : +33 (0)4 79 54 41 81

Coordonnées détaillées et accès : cliquez ici

facebook 770688 960 720  logo instagram large

[source: ADDS]
METAR / TAF
LFLB 140830Z AUTO VRB02KT 6000 -RA VCTS FEW040/// SCT092/// OVC110/// //////CB 18/17 Q1014 TEMPO VRB15G35KT 1500 TSGR BKN010 =
TAF LFLB 140800Z 1409/1509 18008KT CAVOK TEMPO 1409/1412 VRB15G35KT 4000 TSRA BKN060CB PROB30 TEMPO 1409/1411 1500 TSGR BKN010 TEMPO 1415/1419 VRB15G25KT 4000 TSRA SCT013 BKN050CB PROB30 TEMPO 1501/1505 2000 MIFG

SR / SS: 04:35 / 18:46 UTC (Lever/Coucher du soleil le 2022-08-14)
JSN Boot template designed by JoomlaShine.com